[[{"header":{"parameterUnit":"m.s-1","parameterCategory":1,"la1":30.2991,"la2":30.254,"lo1":-89.0895,"lo2":-89.0444,"dy":0.0017,"dx":0.0017,"nx":28,"ny":28,"refTime":"2023-09-28T21:00:00:Z","depth":0,"parameterNumber":2,"parameterNumberName":"U-component_of_WINDS"},"data":[0,0,0,0,0,0,0,0,0,0,0,0,0,0,0,0,0,0,0,0,0,0,0,0,0,0,0,0,0,0,0,0,0,0,0,0,0,0,0,0,0,0,0,0,0,0,0,0,0,0,0,0,0,0,0,0,0,0,-2.1628,-2.1628,0,-2.1564,-2.1563,-2.1562,-2.1498,-2.1497,-2.1496,-2.1495,-2.143,-2.143,-2.1429,0,0,0,0,0,0,0,0,0,0,0,0,0,-2.1699,-2.1698,-2.1628,-2.1628,-2.1627,-2.1564,-2.1563,-2.1562,-2.1498,-2.1497,-2.1496,-2.1495,-2.1431,-2.143,-2.1429,0,0,0,0,0,0,0,0,0,0,0,0,0,-2.1655,-2.1698,-2.1629,-2.1587,-2.1583,-2.1564,-2.1563,-2.1562,-2.1498,-2.1497,-2.1495,-2.1494,-2.1431,-2.143,-2.1428,-2.1446,0,0,-2.1424,-2.1424,0,0,0,0,0,0,0,0,-2.1658,-2.1652,-2.1594,-2.159,-2.1585,-2.1537,-2.1564,-2.1523,-2.1498,-2.153,-2.1495,-2.1493,-2.1467,-2.1463,-2.1454,-2.1443,-2.144,-2.1424,-2.1423,-2.1423,-2.1422,0,0,0,0,0,0,0,-2.1661,-2.1655,-2.1603,-2.1593,-2.1588,-2.1573,-2.1565,-2.1556,-2.1507,-2.1527,-2.1522,-2.1516,-2.1464,-2.1455,-2.1452,-2.1439,-2.1424,-2.1423,-2.1422,-2.1422,-2.1445,-2.1446,0,0,0,0,0,0,-2.167,-2.1658,-2.1605,-2.1601,-2.1619,-2.1573,-2.1564,-2.1554,-2.1507,-2.1498,-2.1517,-2.1513,-2.1458,-2.1453,-2.1449,-2.147,-2.1423,-2.1421,-2.1421,-2.1444,-2.1445,-2.1447,0,0,0,0,0,0,-2.1671,-2.1666,-2.1607,-2.1628,-2.1619,-2.1573,-2.1562,-2.1553,-2.1544,-2.1499,-2.149,-2.1516,-2.1457,-2.1451,-2.1448,-2.1467,-2.1421,-2.142,-2.1442,-2.1444,-2.1446,-2.1511,0,0,0,0,0,0,-2.1674,-2.1667,-2.1672,-2.1629,-2.1619,-2.1607,-2.1563,-2.1553,-2.1542,-2.1536,-2.1496,-2.1488,-2.1455,-2.1451,-2.1447,-2.1464,-2.1419,-2.144,-2.1443,-2.1446,-2.1507,-2.1515,-2.1522,0,0,0,0,0,-2.1677,-2.1692,-2.1672,-2.1666,-2.1624,-2.1608,-2.1602,-2.1564,-2.1543,-2.1549,-2.1521,-2.1489,-2.1465,-2.1451,-2.1446,-2.1463,-2.1439,-2.1442,-2.1445,-2.1503,-2.1513,-2.1521,0,0,0,0,0,0,-2.1738,-2.1685,-2.1663,-2.1665,-2.1642,-2.1597,-2.1603,-2.1575,-2.1558,-2.1553,-2.1507,-2.1498,-2.1502,-2.1482,-2.1467,-2.148,-2.1448,-2.145,-2.1494,-2.1502,-2.151,-2.1516,-2.1417,0,0,0,0,0,-2.1752,-2.1742,-2.1697,-2.1703,-2.1692,-2.165,-2.1641,-2.1614,-2.1588,-2.1578,-2.1549,-2.1526,-2.1514,-2.1507,-2.1492,-2.1503,-2.1496,-2.1513,-2.152,-2.1526,-2.153,-2.1539,-2.1547,-2.1458,-2.1458,-2.1458,0,0,-2.178,-2.175,-2.1747,-2.1715,-2.1693,-2.1687,-2.1642,-2.1635,-2.1631,-2.1577,-2.1574,-2.1552,-2.1524,-2.1529,-2.153,-2.1512,-2.1553,-2.1531,-2.1536,-2.1536,-2.1543,-2.1551,-2.1559,-2.146,-2.1459,-2.1459,0,0,-2.1829,-2.1804,-2.1808,-2.1788,-2.1757,-2.1729,-2.173,-2.1691,-2.1675,-2.167,-2.1632,-2.1625,-2.1604,-2.1586,-2.1575,-2.162,-2.1592,-2.1617,-2.1657,-2.1666,-2.1673,-2.1679,-2.1699,-2.1706,-2.162,-2.162,-2.162,0,-2.1868,-2.1855,-2.1813,-2.1811,-2.1799,-2.1751,-2.1757,-2.1739,-2.1705,-2.1699,-2.168,-2.1655,-2.1631,-2.1634,-2.1646,-2.1636,-2.1639,-2.1622,-2.1675,-2.1681,-2.1686,-2.1705,-2.1712,-2.1624,-2.1623,-2.1623,-2.1623,0,-2.1907,-2.1899,-2.1906,-2.1876,-2.1865,-2.1866,-2.1826,-2.182,-2.1795,-2.177,-2.1769,-2.174,-2.1721,-2.1719,-2.1693,-2.1719,-2.171,-2.1683,-2.165,-2.1699,-2.1716,-2.1722,-2.1629,-2.1627,-2.1626,-2.1625,0,0,-2.1992,-2.1941,-2.1944,-2.1932,-2.1895,-2.1889,-2.1889,-2.1871,-2.1869,-2.1847,-2.1848,-2.1833,-2.1809,-2.1796,-2.1768,-2.1776,-2.1819,-2.1749,-2.1747,-2.1766,-2.1851,-2.1874,-2.1882,-2.1799,-2.18,-2.1801,-2.1855,0,-2.2037,-2.2035,-2.1999,-2.2007,-2.2002,-2.1957,-2.1958,-2.1937,-2.1914,-2.1907,-2.1882,-2.1873,-2.1841,-2.1833,-2.1838,-2.1813,-2.1836,-2.1808,-2.1803,-2.1804,-2.1815,-2.189,-2.1913,-2.1965,-2.1861,-2.1862,-2.1862,0,-2.2089,-2.2072,-2.2081,-2.2048,-2.2044,-2.2045,-2.2028,-2.202,-2.1997,-2.198,-2.1967,-2.1936,-2.1937,-2.1904,-2.1906,-2.1888,-2.1884,-2.1872,-2.1873,-2.1873,-2.1838,-2.1896,-2.198,-2.1989,-2.1872,-2.1871,-2.187,0,-2.2155,-2.2134,-2.2138,-2.2128,-2.2088,-2.2091,-2.2075,-2.2049,-2.2042,-2.2027,-2.2023,-2.2007,-2.2,-2.199,-2.1957,-2.1936,-2.1965,-2.1928,-2.1954,-2.1955,-2.1963,-2.1964,-2.2051,-2.1956,-2.1955,-2.1955,-2.1955,0,-2.2211,-2.2219,-2.2168,-2.217,-2.2179,-2.2138,-2.2148,-2.2128,-2.2106,-2.2106,-2.2065,-2.2066,-2.2021,-2.2017,-2.1991,-2.1999,-2.1995,-2.1984,-2.1978,-2.1989,-2.1992,-2.1988,-2.1985,-2.1957,-2.1957,-2.1956,-2.1956,0,-2.2287,-2.2252,-2.2254,-2.2217,-2.2208,-2.2217,-2.2186,-2.2188,-2.2163,-2.2163,-2.2161,-2.2123,-2.2117,-2.2083,-2.2068,-2.2051,-2.207,-2.2054,-2.2078,-2.2074,-2.2103,-2.2103,-2.2194,-2.2206,-2.21,-2.2101,-2.2102,0,-2.2326,-2.2331,-2.2296,-2.2293,-2.2279,-2.2274,-2.2267,-2.2227,-2.2222,-2.2198,-2.2204,-2.2194,-2.2185,-2.2177,-2.215,-2.2139,-2.2126,-2.2159,-2.2124,-2.2137,-2.2131,-2.2133,-2.2135,-2.2167,-2.2168,-2.2169,-2.217,0,-2.2401,-2.2385,-2.2376,-2.2362,-2.2355,-2.2342,-2.2327,-2.2327,-2.2284,-2.2281,-2.2274,-2.2267,-2.2254,-2.2246,-2.2232,-2.2217,-2.2188,-2.2181,-2.2187,-2.2201,-2.2217,-2.2213,-2.2102,-2.218,-2.2179,-2.2178,-2.2178,-2.2177,-2.2462,-2.2467,-2.2444,-2.2436,-2.2421,-2.2409,-2.241,-2.2387,-2.238,-2.2367,-2.2344,-2.2342,-2.2321,-2.2299,-2.2287,-2.2286,-2.2269,-2.2277,-2.2279,-2.2283,-2.2291,-2.2214,-2.2283,-2.2282,-2.2282,-2.2282,-2.2282,0,-2.2538,-2.2522,-2.2515,-2.2497,-2.2492,-2.2464,-2.2447,-2.2446,-2.2444,-2.2427,-2.242,-2.2415,-2.2408,-2.2381,-2.2372,-2.2377,-2.2364,-2.2376,-2.2377,-2.2375,-2.2304,-2.2302,-2.2387,-2.2387,-2.2387,-2.2387,-2.2387,-2.2387,-2.2578,-2.2585,-2.2567,-2.2568,-2.2551,-2.2549,-2.2542,-2.2532,-2.2519,-2.2515,-2.251,-2.2491,-2.2472,-2.2462,-2.2456,-2.2448,-2.2448,-2.2466,-2.2455,-2.239,-2.238,-2.237,-2.2368,-2.2465,-2.2466,-2.2526,-2.2526,-2.2527]},{"header":{"parameterUnit":"m.s-1","parameterCategory":1,"la1":30.2991,"la2":30.254,"lo1":-89.0895,"lo2":-89.0444,"dy":0.0017,"dx":0.0017,"nx":28,"ny":28,"refTime":"2023-09-28T21:00:00:Z","depth":0,"parameterNumber":3,"parameterNumberName":"V-component_of_WINDS"},"data":[0,0,0,0,0,0,0,0,0,0,0,0,0,0,0,0,0,0,0,0,0,0,0,0,0,0,0,0,0,0,0,0,0,0,0,0,0,0,0,0,0,0,0,0,0,0,0,0,0,0,0,0,0,0,0,0,0,0,0.8748,0.8748,0,0.8733,0.8733,0.8733,0.8687,0.8686,0.8685,0.8684,0.8667,0.8668,0.8668,0,0,0,0,0,0,0,0,0,0,0,0,0,0.8735,0.8735,0.8748,0.8748,0.8748,0.8733,0.8733,0.8733,0.8687,0.8686,0.8685,0.8683,0.8667,0.8668,0.8668,0,0,0,0,0,0,0,0,0,0,0,0,0,0.8732,0.8736,0.8748,0.8723,0.8721,0.8733,0.8733,0.8733,0.8687,0.8686,0.8684,0.8683,0.8667,0.8667,0.8668,0.8703,0,0,0.867,0.8671,0,0,0,0,0,0,0,0,0.8733,0.8733,0.8727,0.8725,0.8722,0.871,0.8722,0.8723,0.8688,0.87,0.8684,0.8682,0.8683,0.8682,0.8682,0.8702,0.8702,0.8671,0.8671,0.8671,0.8671,0,0,0,0,0,0,0,0.8733,0.8733,0.8742,0.8727,0.8724,0.8712,0.871,0.8722,0.87,0.8699,0.8695,0.8694,0.8681,0.8682,0.8682,0.8701,0.8671,0.8671,0.8672,0.8672,0.8745,0.8747,0,0,0,0,0,0,0.8737,0.8734,0.8743,0.8742,0.8724,0.8714,0.8711,0.8716,0.87,0.8696,0.8696,0.8692,0.8681,0.8681,0.8681,0.8717,0.8671,0.8672,0.8672,0.8744,0.8746,0.8747,0,0,0,0,0,0,0.8737,0.8738,0.8743,0.8737,0.8737,0.8715,0.8721,0.8716,0.8717,0.8697,0.8693,0.8701,0.868,0.868,0.8697,0.8716,0.8672,0.8673,0.8742,0.8744,0.8746,0.8793,0,0,0,0,0,0,0.8737,0.8738,0.8752,0.8738,0.8737,0.8761,0.8722,0.8717,0.8718,0.8714,0.8701,0.8697,0.8679,0.8696,0.8698,0.8716,0.8674,0.874,0.8743,0.8746,0.8789,0.8796,0.8802,0,0,0,0,0,0.8736,0.8766,0.8753,0.8754,0.8754,0.8762,0.8761,0.874,0.872,0.8733,0.872,0.8698,0.8715,0.8698,0.87,0.8719,0.8739,0.8742,0.8746,0.8786,0.8795,0.8802,0,0,0,0,0,0,0.8783,0.8764,0.8749,0.8775,0.877,0.8754,0.8769,0.875,0.8751,0.8747,0.872,0.8717,0.8737,0.8731,0.8713,0.875,0.8723,0.8727,0.8753,0.8761,0.8768,0.8767,0.8674,0,0,0,0,0,0.8797,0.8805,0.8788,0.8813,0.8811,0.8791,0.8794,0.8778,0.8772,0.8769,0.8758,0.8752,0.8756,0.8759,0.8762,0.8789,0.8784,0.8803,0.881,0.8815,0.8817,0.8828,0.8835,0.8758,0.8758,0.8758,0,0,0.8824,0.8815,0.8822,0.8822,0.8816,0.8824,0.879,0.8801,0.8806,0.8771,0.8785,0.8777,0.8769,0.8791,0.88,0.8785,0.8838,0.8819,0.8824,0.8823,0.8832,0.8839,0.8846,0.8761,0.876,0.876,0,0,0.8878,0.8873,0.8891,0.8886,0.8878,0.8865,0.8869,0.8856,0.8848,0.8863,0.8836,0.8842,0.885,0.8844,0.8843,0.8893,0.8871,0.8895,0.8928,0.8938,0.8944,0.895,0.8964,0.897,0.8899,0.8899,0.8899,0,0.8912,0.8924,0.8903,0.8915,0.8914,0.8884,0.8901,0.8897,0.8891,0.889,0.8875,0.8883,0.8876,0.8894,0.8906,0.8907,0.8909,0.8895,0.8946,0.895,0.8955,0.8968,0.8974,0.8901,0.8901,0.8901,0.8901,0,0.8966,0.8974,0.899,0.8984,0.8985,0.9,0.898,0.8984,0.8968,0.8956,0.897,0.896,0.8959,0.8963,0.8948,0.8978,0.8969,0.8951,0.8922,0.8965,0.8977,0.8983,0.8905,0.8904,0.8904,0.8903,0,0,0.9046,0.9028,0.9033,0.9029,0.9018,0.9023,0.9036,0.9035,0.9038,0.9035,0.9043,0.905,0.9032,0.903,0.9014,0.9024,0.906,0.9003,0.9003,0.9011,0.9089,0.9101,0.9108,0.9047,0.9048,0.9049,0.9089,0,0.9093,0.9113,0.9094,0.9118,0.9123,0.9095,0.9105,0.9099,0.9088,0.9091,0.9079,0.9083,0.9061,0.9059,0.9068,0.9054,0.9075,0.9052,0.9052,0.9052,0.9051,0.9114,0.9127,0.9165,0.9094,0.9095,0.9095,0,0.915,0.9149,0.9173,0.9158,0.916,0.917,0.9166,0.917,0.9162,0.9153,0.9151,0.9132,0.9141,0.9116,0.9128,0.9112,0.9112,0.9105,0.9106,0.9102,0.9074,0.9109,0.9177,0.9181,0.9103,0.9103,0.9102,0,0.9201,0.9206,0.922,0.9218,0.9202,0.9209,0.9203,0.9194,0.9194,0.9191,0.919,0.9189,0.9187,0.9186,0.9166,0.915,0.9179,0.9153,0.9169,0.917,0.9174,0.9173,0.9239,0.918,0.918,0.918,0.918,0,0.9254,0.9268,0.9242,0.925,0.9266,0.9244,0.9259,0.925,0.9242,0.9247,0.9223,0.9228,0.9204,0.9206,0.9191,0.9201,0.9201,0.9193,0.9188,0.9193,0.9193,0.9189,0.9185,0.9181,0.9181,0.9181,0.918,0,0.9312,0.9295,0.9308,0.9292,0.9289,0.93,0.9286,0.9292,0.928,0.9287,0.9287,0.9267,0.9268,0.925,0.9248,0.9237,0.9253,0.9245,0.9255,0.9251,0.9267,0.9265,0.933,0.9336,0.9277,0.9277,0.9278,0,0.9344,0.9354,0.934,0.9342,0.9336,0.934,0.9339,0.9319,0.9319,0.931,0.9317,0.9316,0.9314,0.9317,0.9302,0.9299,0.9289,0.9312,0.9288,0.9292,0.9285,0.9283,0.9283,0.9316,0.9317,0.9317,0.9318,0,0.9402,0.9393,0.9394,0.9391,0.9391,0.9388,0.9384,0.9386,0.9363,0.9365,0.9366,0.9364,0.9361,0.936,0.9355,0.9347,0.9328,0.9326,0.9329,0.9332,0.9336,0.9331,0.9265,0.9324,0.9323,0.9323,0.9323,0.9322,0.9445,0.9452,0.9443,0.9443,0.9438,0.9434,0.9438,0.9427,0.9427,0.9423,0.9411,0.9413,0.9404,0.9394,0.9389,0.9389,0.9378,0.9383,0.9384,0.9385,0.9386,0.9339,0.9389,0.9389,0.9388,0.9388,0.9388,0,0.9499,0.9491,0.9493,0.9486,0.9487,0.9471,0.9464,0.9465,0.9468,0.9461,0.9459,0.9459,0.9457,0.9443,0.9439,0.9442,0.9433,0.9442,0.9439,0.9437,0.9398,0.9394,0.9449,0.9449,0.9449,0.9449,0.9449,0.9449,0.9526,0.9536,0.9526,0.9533,0.9525,0.9527,0.9524,0.952,0.9514,0.9515,0.9514,0.9504,0.9494,0.9489,0.9486,0.9482,0.948,0.9491,0.9483,0.9446,0.944,0.9435,0.9431,0.9492,0.9492,0.9522,0.9522,0.9522]}]]